BY70-3 (46839 NORAD) Tracking and Keplerian Element Data

This shows tracking and keplerian element data for the satellite.

Feedback or suggestion? Click here.




ElementValue
Catalog46839
NameBY70-3
Epoch Orbit13398
Epoch Day85.25252574
Epoch Year2023
RAAN162.6522
Inclination97.1466
Eccentricity0.0005583
Argument of Perigee268.6295
Mean Anonmoly164.7655
Mean Motion15.91696127
Decay Rate0.00781012
L11 46839U 20079N 23085.25252574 .00781012 25291-3 24166-2 0 9990
L22 46839 97.1466 162.6522 0005583 268.6295 164.7655 15.91696127133983



Live tracking and technical data element details for BY70-3 (NORAD 46839). BY70-3 can be tracked NOW for your location showing map with azimuth and elevation plus other details from your city location.







IsCatalogInMostPopularTable: catalog: 46839, numindb: 199
Update: records affected: 1



GetName: 46839 BY70-3

Hit Count: updated at: Thu, 23 Jan 2025 17:12:44 GMT